Philip, SD

3:17 PM MST on January 17, 2018 (GMT -0700)
Philip

Weather History for KPHP - January, 2013

Change the Weather History Date:

Thursday, January 24, 2013

  Actual Average Record
Temperature  
Mean Temperature 20 °F 23 °F  
Max Temperature 34 °F 35 °F 66 °F (2005)
Min Temperature 5 °F 10 °F -22 °F (1969)
Degree Days  
Heating Degree Days 45 42  
Month to date heating degree days 979 1037  
Since 1 July heating degree days 3743 3972  
Moisture  
Dew Point 12 °F    
Average Humidity 72    
Maximum Humidity 88    
Minimum Humidity 56    
Precipitation  
Precipitation 0.00 in 0.01 in 0.20 in (1956)
Month to date precipitation 0.35 0.24  
Year to date precipitation 0.35 0.24  
Sea Level Pressure  
Sea Level Pressure 30.15 in    
Wind  
Wind Speed 11 mph (East)    
Max Wind Speed 22 mph    
Max Gust Speed 28 mph    
Visibility 10 miles    
Events      
T = Trace of Precipitation, MM = Missing Value Source: NWS Daily Summary

Daily Weather History Graph

Daily Weather History Graph

Search for Another Location

Airport or City:

Trip Planner

Search our weather history database for the weather conditions in past years. The results will help you decide how hot, cold, wet, or windy it might be!

Date:

Astronomy

Jan. 24, 2013 Rise Set
Actual Time 7:11 AM MST 4:46 PM MST
Civil Twilight 6:40 AM MST 5:17 PM MST
Nautical Twilight 6:05 AM MST 5:52 PM MST
Astronomical Twilight 5:30 AM MST 6:26 PM MST
Moon 2:48 PM MST (1/24) 5:11 AM MST (1/24)
Length of Visible Light 10h 37m
Length of Day
9h 34m
Waxing Gibbous, 95% of the Moon is Illuminated
Jan 24
Waxing Gibbous
Jan 26
Full
Feb 3
Last Quarter
Feb 10
New
Feb 17
First Quarter

Hourly Weather History & Observations

Time (MST) Temp. Windchill Dew Point Humidity Pressure Visibility Wind Dir Wind Speed Gust Speed Precip Events Conditions
12:55 AM 6.1 °F -9.5 °F 1.9 °F 83% 30.42 in 10.0 mi ESE 11.5 mph - N/A   Clear
1:55 AM 6.1 °F -12.2 °F 1.9 °F 83% 30.38 in 10.0 mi ESE 16.1 mph 20.7 mph N/A   Clear
2:55 AM 5.0 °F -15.2 °F 1.0 °F 84% 30.33 in 10.0 mi ESE 19.6 mph 26.5 mph N/A   Clear
3:55 AM 5.0 °F -13.0 °F 1.9 °F 87% 30.28 in 10.0 mi ESE 15.0 mph 21.9 mph N/A   Clear
4:55 AM 6.1 °F -10.2 °F 1.9 °F 83% 30.26 in 10.0 mi East 12.7 mph - N/A   Clear
5:55 AM 9.0 °F -8.5 °F 3.9 °F 80% 30.22 in 10.0 mi East 16.1 mph - N/A   Clear
6:55 AM 7.0 °F -10.4 °F 3.0 °F 84% 30.21 in 10.0 mi East 15.0 mph - N/A   Clear
7:55 AM 8.1 °F -9.0 °F 3.9 °F 83% 30.17 in 10.0 mi East 15.0 mph - N/A   Clear
8:55 AM 12.0 °F -4.0 °F 6.1 °F 77% 30.15 in 10.0 mi East 15.0 mph - N/A   Clear
9:55 AM 17.1 °F 3.6 °F 10.0 °F 74% 30.12 in 10.0 mi East 12.7 mph - N/A   Clear
10:55 AM 21.9 °F 11.0 °F 12.9 °F 68% 30.09 in 10.0 mi East 10.4 mph - N/A   Clear
11:55 AM 27.0 °F 18.0 °F 17.1 °F 66% 30.04 in 10.0 mi East 9.2 mph - N/A   Clear
12:55 PM 30.9 °F 25.2 °F 19.0 °F 61% 30.01 in 10.0 mi NE 5.8 mph - N/A   Clear
1:55 PM 33.1 °F - 19.0 °F 56% 29.99 in 10.0 mi Calm Calm - N/A   Clear
2:55 PM 30.9 °F 26.2 °F 19.0 °F 61% 30.02 in 10.0 mi North 4.6 mph - N/A   Clear
3:55 PM 28.9 °F 23.9 °F 19.0 °F 67% 30.06 in 10.0 mi NNW 4.6 mph - N/A   Clear
4:55 PM 26.1 °F 17.6 °F 19.0 °F 75% 30.07 in 10.0 mi WNW 8.1 mph - N/A   Clear
5:55 PM 25.0 °F 16.3 °F 19.0 °F 78% 30.10 in 10.0 mi NW 8.1 mph - N/A   Clear
6:55 PM 25.0 °F 18.1 °F 19.0 °F 78% 30.12 in 10.0 mi West 5.8 mph - N/A   Mostly Cloudy
7:55 PM 25.0 °F 14.8 °F 18.0 °F 75% 30.11 in 10.0 mi WSW 10.4 mph - N/A   Overcast
8:55 PM 28.0 °F 18.1 °F 21.0 °F 75% 30.12 in 10.0 mi West 11.5 mph - N/A   Overcast
9:55 PM 30.0 °F 21.1 °F 21.9 °F 72% 30.13 in 10.0 mi West 10.4 mph - N/A   Scattered Clouds
10:55 PM 27.0 °F 17.3 °F 19.9 °F 75% 30.14 in 10.0 mi West 10.4 mph - N/A   Clear
11:55 PM 25.0 °F 15.5 °F 19.0 °F 78% 30.14 in 10.0 mi WSW 9.2 mph - N/A   Clear